Torna al catalogo

MSG 1 DEB

BAFFLE COVER

LostMEO
NORAD 39999·DEBRIS·🇪🇺 EU

Lanciato Aug 28, 2002 da Guiana Space Centre

Loading…

Prossimi Passaggi (prossime 24 ore)

TLE

ObsoletoSource: Space-Track

Epoca: May 18, 2026, 06:03 UTC

1 39999U 02040F   26138.25251892 -.00000311  00000-0  00000-0 0  9995
2 39999  12.1644  14.4055 0104131 105.3382 113.6615  1.01964517 41787

Traccia MSG 1 DEB in tempo reale con AllMySat

Download on the App Store